Location: Pine Mountain Observatory
(43.7910°N, 120.9377°W)
Time: 19:40:25
(UTC-07:00)

Explorer 11/Cluster Stage 4 - Pass Details

Date: 30 May 2019
Orbit: 467 x 1260 km, 28.8° (Epoch: 24 June)

Event Time Altitude Azimuth Distance (km) Brightness Sun altitude
Rises 00:16:29 0° 212° (SSW) 4,112 - -23.7°
Reaches altitude 10° 00:21:17 10° 188° (S) 3,033 - -23.8°
Maximum altitude 00:24:34 13° 163° (SSE) 2,685 - -23.9°
Drops below altitude 10° 00:27:39 10° 136° (SE) 2,813 - -24.0°
Sets 00:31:45 0° 111° (ESE) 3,581 - -24.1°
